Bellefontaine, OH

1:02 PM EST on December 14, 2017 (GMT -0500)
Bellefontaine

Weather History for KEDJ - February, 2014

Change the Weather History Date:

Thursday, February 20, 2014

  Actual Average (KDLZ) Record (KDLZ)
Temperature  
Mean Temperature 44 °F -  
Max Temperature 55 °F 41 °F 68 °F (2016)
Min Temperature 32 °F 21 °F -11 °F (1936)
Degree Days  
Heating Degree Days 22    
Moisture  
Dew Point 39 °F    
Average Humidity 87    
Maximum Humidity 100    
Minimum Humidity 70    
Precipitation  
Precipitation 0.44 in - - ()
Sea Level Pressure  
Sea Level Pressure 29.72 in    
Wind  
Wind Speed 12 mph (SE)    
Max Wind Speed 23 mph    
Max Gust Speed 31 mph    
Visibility 9 miles    
Events      
Averages and records for this station are not official NWS values.
T = Trace of Precipitation, MM = Missing Value Source: NWS Daily Summary

Daily Weather History Graph

Daily Weather History Graph

Search for Another Location

Airport or City:

Trip Planner

Search our weather history database for the weather conditions in past years. The results will help you decide how hot, cold, wet, or windy it might be!

Date:

Astronomy

Feb. 20, 2014 Rise Set
Actual Time 7:21 AM EST 6:16 PM EST
Civil Twilight 6:54 AM EST 6:44 PM EST
Nautical Twilight 6:22 AM EST 7:15 PM EST
Astronomical Twilight 5:51 AM EST 7:47 PM EST
Moon No Moon Rise 10:03 AM EST (2/20)
Length of Visible Light 11h 49m
Length of Day
10h 54m
Waning Gibbous, 71% of the Moon is Illuminated
Feb 20
Waning Gibbous
Feb 22
Last Quarter
Mar 1
New
Mar 8
First Quarter
Mar 16
Full

Hourly Weather History & Observations

Time (EST) Temp. Windchill Dew Point Humidity Pressure Visibility Wind Dir Wind Speed Gust Speed Precip Events Conditions
12:10 AM 32.0 °F 24.8 °F 30.2 °F 93% 30.02 in 10.0 mi SE 8.1 mph - 0.00 in   Clear
12:30 AM 32.0 °F 25.6 °F 30.2 °F 93% 30.02 in 8.0 mi ESE 6.9 mph - 0.00 in   Clear
12:50 AM 32.0 °F 24.2 °F 30.2 °F 93% 30.03 in 9.0 mi SE 9.2 mph - 0.00 in   Clear
1:10 AM 32.0 °F 24.8 °F 30.2 °F 93% 30.03 in 9.0 mi SE 8.1 mph - 0.00 in   Clear
1:30 AM 32.0 °F 25.6 °F 32.0 °F 100% 30.03 in 10.0 mi SE 6.9 mph - 0.00 in   Clear
1:50 AM 33.8 °F 27.7 °F 32.0 °F 93% 30.03 in 10.0 mi SE 6.9 mph - 0.00 in   Clear
2:10 AM 33.8 °F 28.6 °F 32.0 °F 93% 30.02 in 10.0 mi ESE 5.8 mph - 0.00 in   Clear
2:30 AM 33.8 °F 26.4 °F 32.0 °F 93% 30.00 in 10.0 mi East 9.2 mph - 0.00 in   Clear
2:50 AM 35.6 °F 28.6 °F 30.2 °F 81% 29.99 in 10.0 mi East 9.2 mph - 0.00 in   Clear
3:10 AM 35.6 °F 29.9 °F 30.2 °F 81% 29.98 in 10.0 mi ESE 6.9 mph - 0.00 in   Clear
3:30 AM 35.6 °F 28.6 °F 30.2 °F 81% 29.96 in 10.0 mi ESE 9.2 mph - 0.00 in   Clear
3:50 AM 35.6 °F 28.0 °F 30.2 °F 81% 29.96 in 10.0 mi SE 10.4 mph - 0.00 in   Clear
4:10 AM 32.0 °F 23.6 °F 30.2 °F 93% 29.96 in 10.0 mi SE 10.4 mph - 0.00 in   Clear
4:30 AM 33.8 °F 25.8 °F 30.2 °F 87% 29.95 in 10.0 mi SE 10.4 mph - 0.00 in   Clear
4:50 AM 33.8 °F 25.8 °F 30.2 °F 87% 29.94 in 10.0 mi SE 10.4 mph - 0.00 in   Clear
5:10 AM 33.8 °F 24.3 °F 30.2 °F 87% 29.92 in 10.0 mi SE 13.8 mph 17.3 mph 0.00 in   Clear
5:30 AM 33.8 °F 23.9 °F 30.2 °F 87% 29.91 in 10.0 mi SE 15.0 mph - 0.00 in   Clear
5:50 AM 33.8 °F 24.3 °F 30.2 °F 87% 29.91 in 10.0 mi SE 13.8 mph 20.7 mph 0.00 in   Clear
6:10 AM 35.6 °F 26.2 °F 30.2 °F 81% 29.89 in 10.0 mi ESE 15.0 mph 21.9 mph 0.00 in   Mostly Cloudy
6:30 AM 37.4 °F 27.5 °F 30.2 °F 75% 29.86 in 10.0 mi SE 18.4 mph 26.5 mph 0.00 in   Mostly Cloudy
6:50 AM 37.4 °F 27.8 °F 30.2 °F 75% 29.86 in 10.0 mi SE 17.3 mph 24.2 mph 0.00 in   Mostly Cloudy
7:10 AM 37.4 °F 27.8 °F 30.2 °F 75% 29.84 in 10.0 mi SE 17.3 mph 26.5 mph 0.00 in   Mostly Cloudy
7:30 AM 39.2 °F 31.2 °F 30.2 °F 70% 29.83 in 10.0 mi ESE 13.8 mph 23.0 mph 0.00 in   Mostly Cloudy
7:50 AM 39.2 °F 31.6 °F 30.2 °F 70% 29.82 in 7.0 mi ESE 12.7 mph 25.3 mph 0.00 in   Mostly Cloudy
8:10 AM 37.4 °F 30.3 °F 30.2 °F 75% 29.82 in 2.5 mi SE 10.4 mph 16.1 mph 0.04 in   Overcast
8:30 AM 37.4 °F 27.2 °F 32.0 °F 81% 29.80 in 7.0 mi SE 19.6 mph 25.3 mph 0.05 in   Overcast
8:50 AM 37.4 °F 28.9 °F 32.0 °F 81% 29.78 in 4.0 mi SE 13.8 mph 23.0 mph 0.07 in   Overcast
9:10 AM 37.4 °F 27.2 °F 33.8 °F 87% 29.77 in 10.0 mi SE 19.6 mph - 0.00 in   Overcast
9:30 AM 37.4 °F 27.5 °F 33.8 °F 87% 29.77 in 5.0 mi SE 18.4 mph - 0.00 in   Mostly Cloudy
9:50 AM 37.4 °F 27.5 °F 35.6 °F 93% 29.75 in 10.0 mi SE 18.4 mph 24.2 mph 0.00 in   Scattered Clouds
10:10 AM 37.4 °F 26.9 °F 35.6 °F 93% 29.74 in 10.0 mi SE 20.7 mph - 0.00 in   Partly Cloudy
10:30 AM 39.2 °F 29.0 °F 35.6 °F 87% 29.72 in 10.0 mi SE 21.9 mph 29.9 mph 0.00 in   Partly Cloudy
10:50 AM 39.2 °F 30.2 °F 35.6 °F 87% 29.72 in 10.0 mi SSE 17.3 mph 27.6 mph 0.00 in   Scattered Clouds
11:10 AM 39.2 °F 29.8 °F 35.6 °F 87% 29.71 in 10.0 mi SSE 18.4 mph 27.6 mph 0.00 in   Partly Cloudy
11:30 AM 41.0 °F 32.5 °F 35.6 °F 81% 29.71 in 10.0 mi SSE 17.3 mph 27.6 mph 0.00 in   Mostly Cloudy
11:50 AM 42.8 °F 35.1 °F 37.4 °F 81% 29.72 in 10.0 mi SSE 16.1 mph - 0.00 in   Overcast
12:10 PM 42.8 °F 36.2 °F 37.4 °F 81% 29.71 in 10.0 mi SSE 12.7 mph - 0.00 in   Overcast
12:30 PM 44.6 °F 38.1 °F 39.2 °F 81% 29.70 in 10.0 mi SSE 13.8 mph - 0.00 in   Mostly Cloudy
12:50 PM 44.6 °F 38.4 °F 39.2 °F 81% 29.69 in 10.0 mi SSE 12.7 mph 18.4 mph 0.00 in   Partly Cloudy
1:10 PM 44.6 °F 37.8 °F 41.0 °F 87% 29.67 in 10.0 mi SSE 15.0 mph - 0.00 in   Partly Cloudy
1:30 PM 46.4 °F 40.4 °F 42.8 °F 87% 29.66 in 10.0 mi SSE 13.8 mph - 0.00 in   Scattered Clouds
1:50 PM 46.4 °F 39.8 °F 42.8 °F 87% 29.65 in 10.0 mi SSE 16.1 mph - 0.00 in   Scattered Clouds
2:10 PM 46.4 °F 39.8 °F 44.6 °F 93% 29.63 in 10.0 mi SSE 16.1 mph - 0.00 in   Mostly Cloudy
2:30 PM 48.2 °F - 44.6 °F 87% 29.62 in 10.0 mi SE 15.0 mph - 0.00 in   Mostly Cloudy
2:50 PM 48.2 °F - 46.4 °F 93% 29.62 in 10.0 mi SSE 13.8 mph - 0.00 in   Mostly Cloudy
3:10 PM 48.2 °F - 46.4 °F 93% 29.61 in 9.0 mi SSE 16.1 mph - 0.00 in   Overcast
3:30 PM 48.2 °F - 48.2 °F 100% 29.61 in 8.0 mi SSE 13.8 mph - 0.00 in   Overcast
3:50 PM 48.2 °F - 48.2 °F 100% 29.60 in 8.0 mi SE 13.8 mph - 0.00 in   Overcast
4:10 PM 48.2 °F - 48.2 °F 100% 29.59 in 9.0 mi SE 12.7 mph - 0.00 in   Overcast
4:30 PM 51.8 °F - 50.0 °F 94% 29.59 in 10.0 mi SSE 15.0 mph - 0.00 in   Mostly Cloudy
4:50 PM 51.8 °F - 48.2 °F 88% 29.58 in 10.0 mi SSE 13.8 mph - 0.00 in   Scattered Clouds
5:10 PM 51.8 °F - 48.2 °F 88% 29.57 in 10.0 mi SSE 15.0 mph 20.7 mph 0.00 in   Clear
5:30 PM 51.8 °F - 48.2 °F 88% 29.56 in 10.0 mi SSE 13.8 mph - 0.00 in   Clear
5:50 PM 51.8 °F - 48.2 °F 88% 29.55 in 10.0 mi SSE 15.0 mph - 0.00 in   Partly Cloudy
6:10 PM 51.8 °F - 48.2 °F 88% 29.56 in 10.0 mi SSE 13.8 mph - 0.00 in   Partly Cloudy
6:30 PM 50.0 °F - 48.2 °F 94% 29.55 in 10.0 mi SSE 12.7 mph - 0.00 in   Scattered Clouds
6:50 PM 50.0 °F - 48.2 °F 94% 29.54 in 10.0 mi SSE 13.8 mph - 0.00 in   Partly Cloudy
7:10 PM 51.8 °F - 48.2 °F 88% 29.53 in 10.0 mi SSE 16.1 mph - 0.00 in   Clear
7:30 PM 51.8 °F - 46.4 °F 82% 29.52 in 10.0 mi SSE 16.1 mph - 0.00 in   Clear
7:50 PM 51.8 °F - 46.4 °F 82% 29.53 in 10.0 mi SSE 15.0 mph - 0.00 in   Scattered Clouds
8:10 PM 51.8 °F - 46.4 °F 82% 29.53 in 10.0 mi SSE 13.8 mph - 0.00 in   Mostly Cloudy
8:30 PM 51.8 °F - 46.4 °F 82% 29.52 in 10.0 mi SSE 13.8 mph - 0.00 in   Scattered Clouds
8:50 PM 53.6 °F - 46.4 °F 77% 29.51 in 10.0 mi SSE 15.0 mph - 0.00 in   Mostly Cloudy
9:10 PM 53.6 °F - 48.2 °F 82% 29.48 in 10.0 mi SSE 18.4 mph - 0.00 in   Partly Cloudy
9:30 PM 53.6 °F - 48.2 °F 82% 29.47 in 10.0 mi SSE 17.3 mph 23.0 mph 0.00 in   Clear
9:50 PM 53.6 °F - 48.2 °F 82% 29.47 in 10.0 mi SSE 20.7 mph 26.5 mph 0.00 in   Clear
10:10 PM 55.4 °F - 51.8 °F 88% 29.47 in 10.0 mi South 21.9 mph 28.8 mph 0.00 in   Partly Cloudy
10:30 PM 55.4 °F - 51.8 °F 88% 29.47 in 10.0 mi South 23.0 mph 31.1 mph 0.00 in   Partly Cloudy
10:50 PM 55.4 °F - 53.6 °F 94% 29.47 in 9.0 mi South 23.0 mph 31.1 mph 0.00 in   Scattered Clouds
11:10 PM 55.4 °F - 53.6 °F 94% 29.47 in 3.0 mi South 15.0 mph 25.3 mph 0.05 in   Mostly Cloudy
11:30 PM 53.6 °F - 53.6 °F 100% 29.52 in 2.0 mi West 19.6 mph 26.5 mph 0.32 in   Overcast
11:50 PM 48.2 °F - 48.2 °F 100% 29.51 in 7.0 mi WSW 12.7 mph - 0.37 in   Mostly Cloudy